Location: Newark
(34.0000°S, 64.0000°W)
Time: 06:08:40
(UTC+00:00)

Envisat - Visible Passes

Search period start: 07 December 2019 00:00
Search period end: 17 December 2019 00:00
Orbit: 764 x 766 km, 98.1° (Epoch: 06 December)

Date Brightness Start Highest point End Pass type
(mag) Time Alt. Az. Time Alt. Az. Time Alt. Az.
08 Dec 5.9 00:07:55 10° SSW 00:11:42 21° WSW 00:15:28 10° WNW visible
10 Dec 6.4 00:35:09 10° SW 00:36:52 12° WSW 00:38:36 10° W visible
10 Dec 5.5 23:56:17 10° SSW 00:00:32 27° WSW 00:04:45 10° NW visible
13 Dec 6.1 00:22:53 10° SSW 00:25:44 15° WSW 00:28:35 10° W visible
13 Dec 5.0 23:44:44 10° S 23:49:20 34° WSW 23:53:54 10° NW visible
16 Dec 5.9 00:11:01 10° SSW 00:14:35 19° WSW 00:18:08 10° WNW visible
